Weather in Gorki

Russia / Vladimir Oblast     56°34′49″N   39°23′13″E
temp.,
°C
wind,
m/s
gust,
m/s
humid.,
%
clouds,
%
prec.,
mm/h
press.,
hPa
HPBL,
m
22 october, fri
fri2200:00+9ssw71587100 0.0 993559
03:00+10ssw81782100 0.0 991690
06:00+10sw91780100 0.0 991818
09:00+11sw9157861 0.0 9911178
12:00+11wsw9146824 0.1 9931351
15:00+10wsw11186726 0.4 9941577
18:00+7wsw916695 0.0 9981185
21:00+6wsw8156998 0.0 10001097
23 october, sat
sat2300:00+6wsw8147355 0.0 10001023
03:00+6sw71374100 0.0 10011153
06:00+5sw7137899 0.0 1001950
09:00+5sw71279100 0.0 10021068
12:00+7sw7116775 0.0 10021086
15:00+6sw6106991 0.1 10031242
18:00+5sw7117699 0.1 10041047
21:00+4w61295100 1.2 1005800
24 october, sun
sun2400:00+4wsw6118354 0.1 1006645
03:00+3wsw51084100 0.1 1007482
06:00+2wsw51188100 0.0 1007530
09:00+3wsw4896100 0.2 1008512
12:00+2w4796100 0.6 1009501
15:00+2nw5994100 0.9 1011550
18:00+1nnw6108967 0.1 1014722
21:000nnw7118974 0.4 1017796
25 october, mon
mon2500:00−1nnw6118146 0.1 1021792
03:00−2nnw612856 0.1 1023623
06:00−2nnw612886 0.0 1026528
09:00−1nw59845 0.0 1028473
12:00+2nw56595 0.0 1029733
15:00+2wnw465899 0.0 1030682
18:000wsw3675100 0.0 1031130
21:00−1wsw4107981 0.0 1031272
26 october, tue
tue2600:000sw6137273 0.0 1030410
03:00−1sw614725 0.0 1029413
06:00−1sw71573100 0.0 1027417
09:000sw71668100 0.0 1026516
12:00+4wsw7155650 0.0 1024657
15:00+4sw71556100 0.0 1023658
18:00+2sw7166397 0.0 1022504
21:00+1sw71667100 0.0 1020537